[[{"header":{"parameterUnit":"m.s-1","parameterCategory":1,"la1":30.2991,"la2":30.254,"lo1":-89.0895,"lo2":-89.0444,"dy":0.0017,"dx":0.0017,"nx":28,"ny":28,"refTime":"2025-06-11T03:00:00:Z","depth":0,"parameterNumber":2,"parameterNumberName":"U-component_of_WINDS"},"data":[0,0,0,0,0,0,0,0,0,0,0,0,0,0,0,0,0,0,0,0,0,0,0,0,0,0,0,0,0,0,0,0,0,0,0,0,0,0,0,0,0,0,0,0,0,0,0,0,0,0,0,0,0,0,0,0,0,0,-0.5427,-0.5427,0,-0.541,-0.541,-0.541,-0.5395,-0.5394,-0.5394,-0.5394,-0.5377,-0.5377,-0.5376,0,0,0,0,0,0,0,0,0,0,0,0,0,-0.5448,-0.5448,-0.5427,-0.5427,-0.5427,-0.541,-0.541,-0.541,-0.5395,-0.5394,-0.5394,-0.5394,-0.5377,-0.5377,-0.5376,0,0,0,0,0,0,0,0,0,0,0,0,0,-0.5436,-0.5448,-0.5427,-0.5417,-0.5416,-0.541,-0.541,-0.5409,-0.5395,-0.5394,-0.5394,-0.5394,-0.5377,-0.5377,-0.5376,-0.5379,0,0,-0.5375,-0.5375,0,0,0,0,0,0,0,0,-0.5437,-0.5435,-0.5419,-0.5418,-0.5417,-0.5404,-0.5411,-0.5399,-0.5395,-0.5403,-0.5394,-0.5394,-0.5386,-0.5385,-0.5382,-0.5378,-0.5377,-0.5375,-0.5375,-0.5375,-0.5374,0,0,0,0,0,0,0,-0.5437,-0.5436,-0.542,-0.5419,-0.5417,-0.5414,-0.5412,-0.5409,-0.5396,-0.5402,-0.5401,-0.5399,-0.5386,-0.5383,-0.5382,-0.5377,-0.5375,-0.5375,-0.5374,-0.5374,-0.5376,-0.5376,0,0,0,0,0,0,-0.544,-0.5437,-0.5421,-0.542,-0.5426,-0.5414,-0.5412,-0.5408,-0.5396,-0.5394,-0.5399,-0.5398,-0.5384,-0.5382,-0.5381,-0.5384,-0.5375,-0.5374,-0.5374,-0.5376,-0.5376,-0.5376,0,0,0,0,0,0,-0.544,-0.5438,-0.5421,-0.5428,-0.5425,-0.5414,-0.541,-0.5408,-0.5405,-0.5394,-0.5392,-0.5399,-0.5384,-0.5382,-0.538,-0.5384,-0.5374,-0.5374,-0.5375,-0.5376,-0.5376,-0.539,0,0,0,0,0,0,-0.5441,-0.5439,-0.5439,-0.5428,-0.5425,-0.542,-0.541,-0.5408,-0.5405,-0.5403,-0.5393,-0.5391,-0.5383,-0.5381,-0.538,-0.5383,-0.5373,-0.5375,-0.5375,-0.5376,-0.5389,-0.5391,-0.5393,0,0,0,0,0,-0.5442,-0.5443,-0.5439,-0.5437,-0.5425,-0.542,-0.5419,-0.5409,-0.5405,-0.5406,-0.5399,-0.5391,-0.5384,-0.5381,-0.5379,-0.5382,-0.5375,-0.5375,-0.5376,-0.5389,-0.5391,-0.5393,0,0,0,0,0,0,-0.5455,-0.5442,-0.5437,-0.5435,-0.5429,-0.5418,-0.5418,-0.5412,-0.5407,-0.5406,-0.5395,-0.5393,-0.5392,-0.5387,-0.5384,-0.5385,-0.5378,-0.5379,-0.5388,-0.539,-0.5392,-0.5393,-0.5373,0,0,0,0,0,-0.5458,-0.5454,-0.5443,-0.5443,-0.544,-0.543,-0.5427,-0.5421,-0.5414,-0.5411,-0.5404,-0.5398,-0.5394,-0.5392,-0.5388,-0.5389,-0.5387,-0.539,-0.5392,-0.5393,-0.5394,-0.5395,-0.5397,-0.5379,-0.5379,-0.5379,0,0,-0.5463,-0.5456,-0.5454,-0.5445,-0.544,-0.5437,-0.5427,-0.5425,-0.5423,-0.5411,-0.5409,-0.5403,-0.5396,-0.5396,-0.5396,-0.5392,-0.5399,-0.5394,-0.5396,-0.5395,-0.5396,-0.5398,-0.54,-0.5379,-0.5379,-0.5379,0,0,-0.5472,-0.5466,-0.5465,-0.546,-0.5452,-0.5446,-0.5446,-0.5436,-0.5432,-0.543,-0.5421,-0.5419,-0.5412,-0.5408,-0.5405,-0.5414,-0.5407,-0.5413,-0.5421,-0.5423,-0.5424,-0.5426,-0.543,-0.5431,-0.5414,-0.5414,-0.5414,0,-0.548,-0.5475,-0.5466,-0.5464,-0.5461,-0.545,-0.545,-0.5446,-0.5437,-0.5435,-0.5431,-0.5424,-0.5418,-0.5417,-0.542,-0.5417,-0.5418,-0.5414,-0.5425,-0.5426,-0.5427,-0.5431,-0.5432,-0.5414,-0.5414,-0.5414,-0.5414,0,-0.5486,-0.5483,-0.5484,-0.5476,-0.5473,-0.5472,-0.5463,-0.5461,-0.5455,-0.545,-0.5448,-0.5441,-0.5436,-0.5435,-0.543,-0.5434,-0.5432,-0.5427,-0.5419,-0.543,-0.5433,-0.5434,-0.5415,-0.5415,-0.5415,-0.5415,0,0,-0.5501,-0.5489,-0.549,-0.5487,-0.5478,-0.5476,-0.5475,-0.547,-0.5469,-0.5464,-0.5464,-0.5459,-0.5454,-0.5451,-0.5445,-0.5446,-0.5455,-0.544,-0.544,-0.5444,-0.5461,-0.5465,-0.5467,-0.5451,-0.5451,-0.5451,-0.5462,0,-0.5509,-0.5507,-0.5499,-0.5499,-0.5497,-0.5488,-0.5488,-0.5483,-0.5478,-0.5475,-0.547,-0.5467,-0.5461,-0.5459,-0.546,-0.5454,-0.5458,-0.5453,-0.5451,-0.5451,-0.5453,-0.5469,-0.5473,-0.5483,-0.5463,-0.5463,-0.5463,0,-0.5517,-0.5513,-0.5513,-0.5506,-0.5505,-0.5505,-0.55,-0.5498,-0.5493,-0.5489,-0.5486,-0.548,-0.5479,-0.5473,-0.5473,-0.5469,-0.5468,-0.5465,-0.5465,-0.5465,-0.5458,-0.5469,-0.5486,-0.5488,-0.5465,-0.5465,-0.5465,0,-0.553,-0.5524,-0.5524,-0.5521,-0.5513,-0.5513,-0.5509,-0.5504,-0.5502,-0.5498,-0.5497,-0.5494,-0.5492,-0.549,-0.5483,-0.5478,-0.5484,-0.5476,-0.5481,-0.5481,-0.5482,-0.5483,-0.55,-0.5481,-0.5481,-0.5481,-0.5481,0,-0.5539,-0.554,-0.5529,-0.5529,-0.553,-0.5522,-0.5523,-0.5519,-0.5514,-0.5514,-0.5506,-0.5505,-0.5496,-0.5495,-0.549,-0.5491,-0.549,-0.5487,-0.5486,-0.5488,-0.5489,-0.5487,-0.5487,-0.5482,-0.5482,-0.5482,-0.5482,0,-0.5552,-0.5545,-0.5545,-0.5537,-0.5535,-0.5536,-0.553,-0.553,-0.5525,-0.5525,-0.5524,-0.5516,-0.5515,-0.5508,-0.5504,-0.5501,-0.5504,-0.5501,-0.5506,-0.5505,-0.5511,-0.551,-0.5528,-0.5531,-0.551,-0.551,-0.551,0,-0.5559,-0.5559,-0.5552,-0.5551,-0.5548,-0.5547,-0.5545,-0.5537,-0.5536,-0.5531,-0.5532,-0.553,-0.5528,-0.5526,-0.552,-0.5518,-0.5515,-0.5522,-0.5515,-0.5518,-0.5516,-0.5516,-0.5517,-0.5523,-0.5523,-0.5524,-0.5524,0,-0.5571,-0.5568,-0.5566,-0.5563,-0.5562,-0.5559,-0.5556,-0.5556,-0.5547,-0.5547,-0.5545,-0.5544,-0.5541,-0.5539,-0.5536,-0.5533,-0.5528,-0.5526,-0.5527,-0.553,-0.5533,-0.5532,-0.551,-0.5526,-0.5525,-0.5525,-0.5525,-0.5525,-0.5582,-0.5582,-0.5578,-0.5576,-0.5573,-0.5571,-0.5571,-0.5566,-0.5565,-0.5562,-0.5558,-0.5557,-0.5554,-0.5549,-0.5547,-0.5547,-0.5543,-0.5545,-0.5545,-0.5546,-0.5547,-0.5533,-0.5546,-0.5546,-0.5546,-0.5546,-0.5546,0,-0.5594,-0.5591,-0.559,-0.5586,-0.5585,-0.558,-0.5577,-0.5577,-0.5576,-0.5573,-0.5572,-0.5571,-0.557,-0.5565,-0.5563,-0.5564,-0.5562,-0.5564,-0.5564,-0.5564,-0.555,-0.5549,-0.5566,-0.5566,-0.5566,-0.5566,-0.5566,-0.5566,-0.5601,-0.5602,-0.5598,-0.5598,-0.5595,-0.5595,-0.5594,-0.5592,-0.559,-0.5589,-0.5588,-0.5585,-0.5582,-0.558,-0.5579,-0.5578,-0.5578,-0.5581,-0.5579,-0.5566,-0.5564,-0.5562,-0.5562,-0.5581,-0.5581,-0.5592,-0.5593,-0.5593]},{"header":{"parameterUnit":"m.s-1","parameterCategory":1,"la1":30.2991,"la2":30.254,"lo1":-89.0895,"lo2":-89.0444,"dy":0.0017,"dx":0.0017,"nx":28,"ny":28,"refTime":"2025-06-11T03:00:00:Z","depth":0,"parameterNumber":3,"parameterNumberName":"V-component_of_WINDS"},"data":[0,0,0,0,0,0,0,0,0,0,0,0,0,0,0,0,0,0,0,0,0,0,0,0,0,0,0,0,0,0,0,0,0,0,0,0,0,0,0,0,0,0,0,0,0,0,0,0,0,0,0,0,0,0,0,0,0,0,3.694,3.6941,0,3.6987,3.6988,3.6988,3.6931,3.6929,3.6927,3.6925,3.6971,3.6974,3.6977,0,0,0,0,0,0,0,0,0,0,0,0,0,3.6797,3.68,3.694,3.6941,3.6941,3.6987,3.6988,3.6989,3.6932,3.6929,3.6927,3.6924,3.697,3.6974,3.6978,0,0,0,0,0,0,0,0,0,0,0,0,0,3.6853,3.6801,3.694,3.6919,3.6917,3.6987,3.6988,3.6989,3.6932,3.6929,3.6926,3.6923,3.6969,3.6974,3.6978,3.7071,0,0,3.6993,3.6995,0,0,0,0,0,0,0,0,3.685,3.6858,3.6921,3.692,3.6919,3.695,3.6954,3.7016,3.6933,3.6927,3.6925,3.6922,3.6967,3.6971,3.6987,3.7073,3.7075,3.6993,3.6996,3.6998,3.7,0,0,0,0,0,0,0,3.6846,3.6856,3.6959,3.6922,3.6921,3.6905,3.691,3.6966,3.6964,3.6927,3.6923,3.6929,3.6965,3.6983,3.6988,3.7076,3.6993,3.6997,3.7,3.7002,3.7236,3.7239,0,0,0,0,0,0,3.6845,3.6853,3.6957,3.696,3.6876,3.691,3.6915,3.6943,3.6963,3.6963,3.6932,3.6927,3.6976,3.6982,3.6989,3.7096,3.6998,3.7003,3.7005,3.7233,3.7237,3.7241,0,0,0,0,0,0,3.6842,3.6855,3.6955,3.6906,3.6917,3.6916,3.6948,3.6946,3.6963,3.6967,3.6966,3.695,3.6974,3.6982,3.705,3.7097,3.7005,3.7009,3.7229,3.7234,3.7239,3.7313,0,0,0,0,0,0,3.6838,3.6854,3.6891,3.6907,3.692,3.7017,3.6951,3.6949,3.6972,3.6965,3.6984,3.6984,3.6972,3.7044,3.7055,3.7102,3.7013,3.7225,3.7231,3.7237,3.7307,3.732,3.7332,0,0,0,0,0,3.6834,3.691,3.6893,3.6906,3.6966,3.702,3.7027,3.7013,3.6976,3.7011,3.7013,3.6983,3.7091,3.7051,3.7064,3.7113,3.7222,3.7229,3.7237,3.7301,3.7318,3.7332,0,0,0,0,0,0,3.6899,3.6912,3.6893,3.6977,3.6998,3.701,3.7055,3.7032,3.7063,3.7055,3.7035,3.704,3.7112,3.7119,3.7075,3.7202,3.715,3.716,3.7194,3.721,3.7222,3.7218,3.7017,0,0,0,0,0,3.6923,3.6967,3.6976,3.7049,3.7061,3.7056,3.7079,3.7066,3.7087,3.7095,3.7102,3.7122,3.716,3.7186,3.7221,3.7308,3.7309,3.7347,3.736,3.7371,3.7379,3.7423,3.7439,3.7265,3.7265,3.7265,0,0,3.6974,3.6986,3.7015,3.7062,3.7077,3.7122,3.7064,3.7114,3.7146,3.7103,3.7167,3.7173,3.7194,3.727,3.7305,3.7279,3.7428,3.738,3.7388,3.7391,3.7432,3.7448,3.7463,3.7271,3.727,3.7269,0,0,3.7088,3.7103,3.7164,3.718,3.7203,3.7199,3.7214,3.7229,3.7232,3.7296,3.7263,3.7301,3.7367,3.7383,3.7399,3.7518,3.749,3.753,3.7595,3.7638,3.7651,3.7663,3.7703,3.7718,3.7539,3.7539,3.7539,0,3.7147,3.7214,3.7198,3.725,3.7271,3.7234,3.7294,3.731,3.7343,3.7358,3.7328,3.741,3.7421,3.75,3.7528,3.7544,3.7558,3.7527,3.7651,3.7663,3.7673,3.7711,3.7726,3.7543,3.7543,3.7542,3.7542,0,3.7285,3.7332,3.7378,3.7411,3.7437,3.7493,3.7484,3.7512,3.7497,3.7495,3.756,3.7572,3.7608,3.7626,3.7612,3.7703,3.7685,3.7654,3.7601,3.7695,3.7729,3.7744,3.755,3.7548,3.7547,3.7546,0,0,3.7442,3.7464,3.7481,3.7494,3.7516,3.7551,3.7605,3.764,3.7663,3.7687,3.773,3.7786,3.7757,3.7776,3.7762,3.78,3.789,3.7764,3.7764,3.7785,3.7987,3.8009,3.8026,3.7872,3.7875,3.7877,3.7984,0,3.7554,3.7647,3.7634,3.7723,3.7764,3.7728,3.7774,3.7792,3.7792,3.7826,3.7825,3.7865,3.7824,3.7835,3.7871,3.7871,3.793,3.7864,3.7909,3.7911,3.7903,3.8045,3.8069,3.8169,3.7998,3.8,3.8002,0,3.7698,3.7726,3.782,3.7832,3.7849,3.7891,3.7921,3.7955,3.7973,3.797,3.7991,3.797,3.8021,3.7969,3.8038,3.7993,3.8011,3.8014,3.8018,3.802,3.7961,3.8048,3.8201,3.8216,3.8024,3.8022,3.8021,0,3.78,3.7862,3.7925,3.7937,3.7955,3.7984,3.7993,3.8008,3.803,3.8056,3.8069,3.8101,3.8118,3.8142,3.813,3.8093,3.8201,3.8148,3.8198,3.8198,3.8221,3.8219,3.8376,3.8236,3.8236,3.8235,3.8235,0,3.7926,3.7983,3.797,3.8009,3.8072,3.8055,3.8117,3.8121,3.8135,3.8172,3.8143,3.8179,3.8162,3.8195,3.8186,3.8243,3.8252,3.8249,3.8246,3.8251,3.8251,3.8261,3.8253,3.8239,3.8239,3.8238,3.8237,0,3.805,3.8044,3.8109,3.812,3.8124,3.817,3.8178,3.8213,3.821,3.8258,3.8268,3.8264,3.8302,3.8292,3.8334,3.8328,3.8399,3.8388,3.8393,3.8389,3.8439,3.8434,3.8607,3.8628,3.8476,3.8477,3.8479,0,3.813,3.8173,3.8188,3.8211,3.8221,3.826,3.8281,3.8265,3.8289,3.8311,3.8343,3.8379,3.8406,3.8468,3.8468,3.8499,3.8487,3.8546,3.8491,3.8494,3.8485,3.8482,3.8485,3.8556,3.8558,3.8559,3.856,0,3.8271,3.8265,3.8298,3.8328,3.8355,3.8378,3.8399,3.8419,3.8405,3.8432,3.8471,3.8492,3.8534,3.8569,3.8597,3.8604,3.8579,3.8577,3.859,3.8595,3.8595,3.8593,3.842,3.8573,3.8572,3.8571,3.857,3.857,3.8374,3.8409,3.8425,3.8461,3.8475,3.8495,3.8527,3.8528,3.8561,3.8593,3.8582,3.8626,3.864,3.8676,3.8686,3.8719,3.8697,3.8716,3.872,3.8725,3.873,3.8591,3.8724,3.8724,3.8724,3.8723,3.8723,0,3.8511,3.8519,3.8553,3.8582,3.861,3.8585,3.8606,3.8631,3.8669,3.8686,3.8713,3.8756,3.8789,3.8791,3.8822,3.8847,3.8837,3.8856,3.8853,3.8854,3.8749,3.8734,3.8864,3.8864,3.8864,3.8864,3.8864,3.8864,3.8586,3.8645,3.864,3.8705,3.8712,3.8754,3.8768,3.8785,3.8798,3.8847,3.8874,3.8876,3.8885,3.8916,3.8945,3.8944,3.8956,3.8979,3.8974,3.8876,3.8862,3.8848,3.8834,3.8983,3.8983,3.9076,3.9077,3.9078]}]]